| time (UTC) | temp F | wind direction | speed MPH | gust MPH | rain 1hr in | rain 24hr in | rain mn in | humidity % | barometer mb |
| 20260904083524 | 79 | 0 | 0.0 | 4.0 | 0.00 | 0.00 | 0.00 | 74 | 1012.9 |
| 20260904083055 | 79 | 0 | 0.0 | 4.0 | 0.00 | 0.00 | 0.00 | 74 | 1012.8 |
| 20260904082527 | 79 | 169 | 0.0 | 4.0 | 0.00 | 0.00 | 0.00 | 74 | 1012.9 |
| 20260904082027 | 79 | 0 | 0.0 | 3.0 | 0.00 | 0.00 | 0.00 | 74 | 1012.8 |
| 20260904081545 | 79 | 0 | 0.0 | 7.0 | 0.00 | 0.00 | 0.00 | 74 | 1012.8 |
| 20260904081024 | 79 | 0 | 0.0 | 7.0 | 0.00 | 0.00 | 0.00 | 74 | 1012.8 |
| 20260904080524 | 79 | 0 | 1.0 | 6.0 | 0.00 | 0.00 | 0.00 | 74 | 1012.9 |
| 20260904080044 | 79 | 0 | 0.0 | 5.0 | 0.00 | 0.00 | 0.00 | 74 | 1012.8 |
| 20260904075524 | 79 | 0 | 0.0 | 5.0 | 0.00 | 0.00 | 0.00 | 74 | 1012.9 |
| 20260904075025 | 79 | 179 | 0.0 | 5.0 | 0.00 | 0.00 | 0.00 | 74 | 1012.8 |
| 20260904074553 | 79 | 0 | 0.0 | 5.0 | 0.00 | 0.00 | 0.00 | 74 | 1012.9 |
| 20260904074024 | 79 | 173 | 0.0 | 5.0 | 0.00 | 0.00 | 0.00 | 73 | 1012.9 |
| 20260904073524 | 79 | 198 | 0.0 | 5.0 | 0.00 | 0.00 | 0.00 | 73 | 1012.9 |
| 20260904073050 | 79 | 0 | 0.0 | 4.0 | 0.00 | 0.00 | 0.00 | 73 | 1012.9 |
| 20260904072527 | 79 | 0 | 0.0 | 3.0 | 0.00 | 0.00 | 0.00 | 73 | 1012.9 |
| 20260904072023 | 79 | 0 | 0.0 | 3.0 | 0.00 | 0.00 | 0.00 | 73 | 1012.8 |
| 20260904071546 | 79 | 0 | 0.0 | 2.0 | 0.00 | 0.00 | 0.00 | 73 | 1012.9 |
| 20260904071024 | 79 | 0 | 0.0 | 2.0 | 0.00 | 0.00 | 0.00 | 72 | 1012.8 |
| 20260904070530 | 80 | 0 | 0.0 | 2.0 | 0.00 | 0.00 | 0.00 | 72 | 1012.9 |
| 20260904070044 | 80 | 0 | 0.0 | 2.0 | 0.00 | 0.00 | 0.00 | 72 | 1012.9 |
| 20260904065525 | 80 | 0 | 0.0 | 2.0 | 0.00 | 0.00 | 0.00 | 72 | 1013.0 |
| 20260904065024 | 80 | 0 | 0.0 | 2.0 | 0.00 | 0.00 | 0.00 | 71 | 1013.0 |
| 20260904064540 | 80 | 0 | 0.0 | 2.0 | 0.00 | 0.00 | 0.00 | 71 | 1013.1 |
| 20260904064027 | 80 | 0 | 0.0 | 2.0 | 0.00 | 0.00 | 0.00 | 70 | 1013.0 |
| 20260904063523 | 80 | 263 | 0.0 | 1.0 | 0.00 | 0.00 | 0.00 | 70 | 1013.0 |
| 20260904063105 | 81 | 0 | 0.0 | 2.0 | 0.00 | 0.00 | 0.00 | 70 | 1013.1 |
| 20260904062525 | 81 | 0 | 0.0 | 2.0 | 0.00 | 0.00 | 0.00 | 69 | 1013.0 |
| 20260904062026 | 81 | 0 | 0.0 | 3.0 | 0.00 | 0.00 | 0.00 | 69 | 1013.1 |
| 20260904061545 | 81 | 0 | 0.0 | 3.0 | 0.00 | 0.00 | 0.00 | 69 | 1013.1 |
| 20260904061028 | 81 | 0 | 0.0 | 0.0 | 0.00 | 0.00 | 0.00 | 68 | 1013.1 |
| 20260904060525 | 81 | 0 | 0.0 | 2.0 | 0.00 | 0.00 | 0.00 | 68 | 1013.0 |
| 20260904060106 | 81 | 0 | 0.0 | 2.0 | 0.00 | 0.00 | 0.00 | 67 | 1012.9 |
| 20260904055525 | 82 | 0 | 0.0 | 4.0 | 0.00 | 0.00 | 0.00 | 67 | 1012.9 |
| 20260904055025 | 82 | 0 | 0.0 | 4.0 | 0.00 | 0.00 | 0.00 | 66 | 1012.9 |
| 20260904054542 | 82 | 0 | 0.0 | 1.0 | 0.00 | 0.00 | 0.00 | 66 | 1012.8 |
| 20260904054027 | 82 | 0 | 0.0 | 1.0 | 0.00 | 0.00 | 0.00 | 65 | 1012.8 |
| 20260904053523 | 82 | 0 | 0.0 | 1.0 | 0.00 | 0.00 | 0.00 | 65 | 1012.8 |
| 20260904053046 | 82 | 0 | 0.0 | 1.0 | 0.00 | 0.00 | 0.00 | 64 | 1012.8 |
| 20260904052524 | 83 | 0 | 0.0 | 4.0 | 0.00 | 0.00 | 0.00 | 64 | 1012.8 |
| 20260904052028 | 83 | 125 | 0.0 | 4.0 | 0.00 | 0.00 | 0.00 | 64 | 1012.8 |
| 20260904051548 | 83 | 0 | 0.0 | 2.0 | 0.00 | 0.00 | 0.00 | 63 | 1012.7 |
| 20260904051021 | 83 | 0 | 0.0 | 5.0 | 0.00 | 0.00 | 0.00 | 63 | 1012.7 |
| 20260904050523 | 83 | 236 | 0.0 | 5.0 | 0.00 | 0.00 | 0.00 | 63 | 1012.6 |
| 20260904050044 | 83 | 169 | 0.0 | 5.0 | 0.00 | 0.00 | 0.00 | 63 | 1012.7 |
| 20260904045526 | 83 | 0 | 0.0 | 6.0 | 0.00 | 0.00 | 0.00 | 62 | 1012.7 |
| 20260904045024 | 83 | 167 | 1.0 | 7.0 | 0.00 | 0.00 | 0.00 | 62 | 1012.7 |
| 20260904044549 | 83 | 170 | 2.0 | 7.0 | 0.00 | 0.00 | 0.00 | 62 | 1012.7 |
| 20260904044025 | 84 | 169 | 1.0 | 7.0 | 0.00 | 0.00 | 0.00 | 62 | 1012.7 |
| 20260904043523 | 84 | 176 | 1.0 | 7.0 | 0.00 | 0.00 | 0.00 | 61 | 1012.7 |
| 20260904043047 | 84 | 0 | 1.0 | 6.0 | 0.00 | 0.00 | 0.00 | 61 | 1012.6 |
| 20260904042524 | 84 | 0 | 1.0 | 5.0 | 0.00 | 0.00 | 0.00 | 62 | 1012.6 |
| 20260904042024 | 84 | 167 | 1.0 | 5.0 | 0.00 | 0.00 | 0.00 | 62 | 1012.4 |
| 20260904041545 | 84 | 175 | 0.0 | 5.0 | 0.00 | 0.00 | 0.00 | 62 | 1012.5 |
| 20260904041028 | 84 | 143 | 0.0 | 5.0 | 0.00 | 0.00 | 0.00 | 62 | 1012.4 |
| 20260904040523 | 84 | 0 | 0.0 | 5.0 | 0.00 | 0.00 | 0.00 | 62 | 1012.4 |
| 20260904040046 | 84 | 0 | 0.0 | 5.0 | 0.00 | 0.00 | 0.00 | 62 | 1012.5 |
| 20260904035524 | 84 | 0 | 1.0 | 5.0 | 0.00 | 0.00 | 0.00 | 61 | 1012.5 |
| 20260904035025 | 84 | 0 | 0.0 | 3.0 | 0.00 | 0.00 | 0.00 | 61 | 1012.5 |
| 20260904034557 | 85 | 0 | 0.0 | 3.0 | 0.00 | 0.00 | 0.00 | 61 | 1012.5 |
| 20260904034024 | 85 | 0 | 0.0 | 3.0 | 0.00 | 0.00 | 0.00 | 60 | 1012.5 |
| 20260904033524 | 85 | 0 | 0.0 | 4.0 | 0.00 | 0.00 | 0.00 | 60 | 1012.5 |
| 20260904033041 | 85 | 0 | 0.0 | 6.0 | 0.00 | 0.00 | 0.00 | 59 | 1012.4 |
| 20260904032525 | 85 | 0 | 0.0 | 6.0 | 0.00 | 0.00 | 0.00 | 59 | 1012.4 |
| 20260904032023 | 85 | 163 | 1.0 | 6.0 | 0.00 | 0.00 | 0.00 | 59 | 1012.4 |
| 20260904031547 | 85 | 0 | 1.0 | 5.0 | 0.00 | 0.00 | 0.00 | 59 | 1012.5 |
| 20260904031024 | 86 | 0 | 0.0 | 4.0 | 0.00 | 0.00 | 0.00 | 59 | 1012.4 |
| 20260904030526 | 86 | 0 | 0.0 | 4.0 | 0.00 | 0.00 | 0.00 | 59 | 1012.4 |
| 20260904030042 | 86 | 0 | 0.0 | 4.0 | 0.00 | 0.00 | 0.00 | 59 | 1012.4 |
| 20260904025524 | 86 | 0 | 0.0 | 4.0 | 0.00 | 0.00 | 0.00 | 59 | 1012.3 |
| 20260904025024 | 86 | 0 | 0.0 | 2.0 | 0.00 | 0.00 | 0.00 | 59 | 1012.3 |
| 20260904024542 | 86 | 0 | 0.0 | 1.0 | 0.00 | 0.00 | 0.00 | 59 | 1012.2 |
| 20260904024025 | 86 | 0 | 0.0 | 2.0 | 0.00 | 0.00 | 0.00 | 58 | 1012.2 |
| 20260904023529 | 87 | 0 | 0.0 | 2.0 | 0.00 | 0.00 | 0.00 | 58 | 1012.1 |
| 20260904023053 | 87 | 0 | 0.0 | 5.0 | 0.00 | 0.00 | 0.00 | 57 | 1012.1 |
| 20260904022524 | 87 | 173 | 0.0 | 5.0 | 0.00 | 0.00 | 0.00 | 57 | 1012.0 |
| 20260904022023 | 87 | 0 | 0.0 | 5.0 | 0.00 | 0.00 | 0.00 | 57 | 1012.0 |
| 20260904021549 | 87 | 0 | 0.0 | 5.0 | 0.00 | 0.00 | 0.00 | 56 | 1011.9 |
| 20260904021024 | 88 | 0 | 0.0 | 5.0 | 0.00 | 0.00 | 0.00 | 56 | 1011.9 |
| 20260904020524 | 88 | 0 | 0.0 | 1.0 | 0.00 | 0.00 | 0.00 | 55 | 1011.8 |
| 20260904020044 | 88 | 0 | 0.0 | 2.0 | 0.00 | 0.00 | 0.00 | 55 | 1011.8 |
| 20260904015524 | 88 | 0 | 0.0 | 2.0 | 0.00 | 0.00 | 0.00 | 54 | 1011.8 |
| 20260904015026 | 88 | 0 | 0.0 | 4.0 | 0.00 | 0.00 | 0.00 | 54 | 1011.7 |
| 20260904014549 | 89 | 0 | 0.0 | 4.0 | 0.00 | 0.00 | 0.00 | 53 | 1011.6 |
| 20260904014027 | 89 | 160 | 0.0 | 2.0 | 0.00 | 0.00 | 0.00 | 53 | 1011.5 |
| 20260904013523 | 89 | 0 | 0.0 | 5.0 | 0.00 | 0.00 | 0.00 | 53 | 1011.5 |
| 20260904013042 | 89 | 0 | 0.0 | 5.0 | 0.00 | 0.00 | 0.00 | 52 | 1011.3 |
| 20260904012530 | 89 | 0 | 0.0 | 4.0 | 0.00 | 0.00 | 0.00 | 52 | 1011.3 |
| 20260904012027 | 89 | 0 | 1.0 | 4.0 | 0.00 | 0.00 | 0.00 | 52 | 1011.2 |
| 20260904011548 | 90 | 0 | 0.0 | 4.0 | 0.00 | 0.00 | 0.00 | 52 | 1011.1 |
| 20260904011028 | 90 | 0 | 0.0 | 4.0 | 0.00 | 0.00 | 0.00 | 52 | 1011.1 |
| 20260904010527 | 90 | 0 | 0.0 | 1.0 | 0.00 | 0.00 | 0.00 | 52 | 1011.1 |
| 20260904010053 | 90 | 0 | 0.0 | 3.0 | 0.00 | 0.00 | 0.00 | 51 | 1010.9 |
| 20260904005523 | 91 | 0 | 0.0 | 3.0 | 0.00 | 0.00 | 0.00 | 50 | 1011.0 |
| 20260904005024 | 91 | 0 | 0.0 | 6.0 | 0.00 | 0.00 | 0.00 | 50 | 1011.0 |
| 20260904004559 | 91 | 0 | 0.0 | 6.0 | 0.00 | 0.00 | 0.00 | 49 | 1011.0 |
| 20260904004026 | 92 | 156 | 0.0 | 6.0 | 0.00 | 0.00 | 0.00 | 49 | 1010.9 |
| 20260904003531 | 92 | 0 | 0.0 | 3.0 | 0.00 | 0.00 | 0.00 | 49 | 1010.9 |
| 20260904003045 | 92 | 0 | 1.0 | 6.0 | 0.00 | 0.00 | 0.00 | 48 | 1010.9 |
| 20260904002526 | 93 | 176 | 0.0 | 6.0 | 0.00 | 0.00 | 0.00 | 47 | 1010.9 |
| 20260904002024 | 93 | 183 | 1.0 | 6.0 | 0.00 | 0.00 | 0.00 | 47 | 1011.0 |
| 20260904001541 | 93 | 0 | 1.0 | 6.0 | 0.00 | 0.00 | 0.00 | 46 | 1011.0 |
| 20260904001029 | 93 | 0 | 2.0 | 7.0 | 0.00 | 0.00 | 0.00 | 46 | 1011.0 |
| 20260904000526 | 94 | 153 | 2.0 | 7.0 | 0.00 | 0.00 | 0.00 | 45 | 1011.0 |
| 20260904000103 | 94 | 211 | 2.0 | 7.0 | 0.00 | 0.00 | 0.00 | 45 | 1010.9 |
| 20260903235525 | 94 | 178 | 1.0 | 7.0 | 0.00 | 0.00 | 0.00 | 44 | 1010.9 |
| 20260903235024 | 94 | 184 | 2.0 | 9.0 | 0.00 | 0.00 | 0.00 | 44 | 1011.0 |
| 20260903234549 | 95 | 180 | 2.0 | 10.0 | 0.00 | 0.00 | 0.00 | 44 | 1010.9 |
| 20260903234023 | 95 | 148 | 2.0 | 10.0 | 0.00 | 0.00 | 0.00 | 43 | 1010.8 |
| 20260903233527 | 95 | 174 | 2.0 | 10.0 | 0.00 | 0.00 | 0.00 | 43 | 1010.8 |
| 20260903233047 | 95 | 0 | 3.0 | 11.0 | 0.00 | 0.00 | 0.00 | 43 | 1010.9 |
| 20260903232521 | 95 | 163 | 4.0 | 11.0 | 0.00 | 0.00 | 0.00 | 43 | 1010.8 |
| 20260903232025 | 95 | 0 | 0.0 | 9.0 | 0.00 | 0.00 | 0.00 | 43 | 1010.9 |
| 20260903231545 | 95 | 159 | 3.0 | 11.0 | 0.00 | 0.00 | 0.00 | 42 | 1010.9 |
| 20260903231024 | 96 | 242 | 2.0 | 11.0 | 0.00 | 0.00 | 0.00 | 42 | 1010.9 |
| 20260903230524 | 96 | 143 | 3.0 | 11.0 | 0.00 | 0.00 | 0.00 | 41 | 1010.8 |
| 20260903230046 | 96 | 176 | 2.0 | 11.0 | 0.00 | 0.00 | 0.00 | 41 | 1010.8 |
| 20260903225528 | 96 | 186 | 3.0 | 13.0 | 0.00 | 0.00 | 0.00 | 41 | 1010.8 |
| 20260903225025 | 96 | 0 | 3.0 | 13.0 | 0.00 | 0.00 | 0.00 | 41 | 1010.8 |
| 20260903224551 | 96 | 258 | 4.0 | 14.0 | 0.00 | 0.00 | 0.00 | 41 | 1010.7 |
| 20260903224029 | 96 | 159 | 5.0 | 14.0 | 0.00 | 0.00 | 0.00 | 41 | 1010.8 |
| 20260903223524 | 96 | 188 | 3.0 | 14.0 | 0.00 | 0.00 | 0.00 | 42 | 1010.8 |
| 20260903223045 | 96 | 184 | 5.0 | 14.0 | 0.00 | 0.00 | 0.00 | 41 | 1010.8 |
| 20260903222525 | 96 | 182 | 3.0 | 16.0 | 0.00 | 0.00 | 0.00 | 42 | 1010.8 |
| 20260903222029 | 96 | 109 | 5.0 | 17.0 | 0.00 | 0.00 | 0.00 | 42 | 1010.9 |
| 20260903221543 | 97 | 0 | 2.0 | 19.0 | 0.00 | 0.00 | 0.00 | 42 | 1010.9 |
| 20260903221024 | 97 | 238 | 3.0 | 19.0 | 0.00 | 0.00 | 0.00 | 42 | 1010.9 |
| 20260903220524 | 97 | 132 | 4.0 | 16.0 | 0.00 | 0.00 | 0.00 | 42 | 1010.9 |
| 20260903220105 | 96 | 219 | 5.0 | 16.0 | 0.00 | 0.00 | 0.00 | 43 | 1010.9 |
| 20260903215528 | 97 | 85 | 6.0 | 17.0 | 0.00 | 0.00 | 0.00 | 42 | 1011.0 |
| 20260903215024 | 97 | 190 | 6.0 | 18.0 | 0.00 | 0.00 | 0.00 | 43 | 1011.0 |
| 20260903214543 | 97 | 135 | 3.0 | 18.0 | 0.00 | 0.00 | 0.00 | 42 | 1011.0 |
| 20260903214022 | 97 | 96 | 5.0 | 12.0 | 0.00 | 0.00 | 0.00 | 43 | 1011.1 |
| 20260903213528 | 97 | 270 | 3.0 | 14.0 | 0.00 | 0.00 | 0.00 | 42 | 1011.1 |
| 20260903213043 | 97 | 246 | 7.0 | 14.0 | 0.00 | 0.00 | 0.00 | 42 | 1011.1 |
| 20260903212522 | 97 | 147 | 5.0 | 13.0 | 0.00 | 0.00 | 0.00 | 42 | 1011.1 |
| 20260903212025 | 97 | 0 | 4.0 | 13.0 | 0.00 | 0.00 | 0.00 | 42 | 1011.1 |
| 20260903211611 | 97 | 134 | 5.0 | 14.0 | 0.00 | 0.00 | 0.00 | 43 | 1011.2 |
| 20260903211028 | 97 | 140 | 2.0 | 16.0 | 0.00 | 0.00 | 0.00 | 43 | 1011.1 |
| 20260903210524 | 97 | 0 | 2.0 | 16.0 | 0.00 | 0.00 | 0.00 | 43 | 1011.2 |
| 20260903210054 | 97 | 144 | 6.0 | 16.0 | 0.00 | 0.00 | 0.00 | 43 | 1011.3 |
| 20260903205525 | 97 | 93 | 4.0 | 13.0 | 0.00 | 0.00 | 0.00 | 42 | 1011.4 |
| 20260903205023 | 97 | 154 | 4.0 | 13.0 | 0.00 | 0.00 | 0.00 | 43 | 1011.4 |
| 20260903204542 | 96 | 181 | 4.0 | 17.0 | 0.00 | 0.00 | 0.00 | 44 | 1011.5 |
| 20260903204025 | 96 | 105 | 5.0 | 17.0 | 0.00 | 0.00 | 0.00 | 42 | 1011.6 |
| 20260903203525 | 97 | 0 | 5.0 | 15.0 | 0.00 | 0.00 | 0.00 | 43 | 1011.6 |
| 20260903203043 | 97 | 191 | 4.0 | 12.0 | 0.00 | 0.00 | 0.00 | 43 | 1011.8 |
| 20260903202524 | 97 | 195 | 3.0 | 12.0 | 0.00 | 0.00 | 0.00 | 42 | 1011.8 |
| 20260903202027 | 96 | 0 | 4.0 | 13.0 | 0.00 | 0.00 | 0.00 | 45 | 1011.8 |
| 20260903201542 | 96 | 197 | 5.0 | 15.0 | 0.00 | 0.00 | 0.00 | 44 | 1011.9 |
| 20260903201023 | 96 | 215 | 5.0 | 16.0 | 0.00 | 0.00 | 0.00 | 43 | 1012.0 |
| 20260903200523 | 96 | 131 | 4.0 | 16.0 | 0.00 | 0.00 | 0.00 | 44 | 1012.0 |
| 20260903200048 | 96 | 214 | 3.0 | 13.0 | 0.00 | 0.00 | 0.00 | 45 | 1012.1 |
| 20260903195525 | 96 | 193 | 4.0 | 13.0 | 0.00 | 0.00 | 0.00 | 45 | 1012.2 |
| 20260903195024 | 96 | 161 | 5.0 | 13.0 | 0.00 | 0.00 | 0.00 | 46 | 1012.2 |
| 20260903194548 | 96 | 190 | 4.0 | 12.0 | 0.00 | 0.00 | 0.00 | 45 | 1012.2 |
| 20260903194024 | 96 | 126 | 3.0 | 12.0 | 0.00 | 0.00 | 0.00 | 45 | 1012.4 |
| 20260903193526 | 97 | 274 | 2.0 | 11.0 | 0.00 | 0.00 | 0.00 | 46 | 1012.3 |
| 20260903193046 | 95 | 157 | 3.0 | 13.0 | 0.00 | 0.00 | 0.00 | 47 | 1012.3 |
| 20260903192525 | 95 | 140 | 5.0 | 14.0 | 0.00 | 0.00 | 0.00 | 46 | 1012.4 |
| 20260903192024 | 95 | 178 | 5.0 | 14.0 | 0.00 | 0.00 | 0.00 | 46 | 1012.3 |
| 20260903191542 | 95 | 0 | 4.0 | 14.0 | 0.00 | 0.00 | 0.00 | 46 | 1012.4 |
| 20260903191025 | 95 | 143 | 5.0 | 13.0 | 0.00 | 0.00 | 0.00 | 46 | 1012.4 |
| 20260903190525 | 96 | 0 | 3.0 | 11.0 | 0.00 | 0.00 | 0.00 | 46 | 1012.4 |
| 20260903190048 | 95 | 198 | 5.0 | 11.0 | 0.00 | 0.00 | 0.00 | 46 | 1012.5 |
| 20260903185523 | 96 | 155 | 3.0 | 16.0 | 0.00 | 0.00 | 0.00 | 46 | 1012.5 |
| 20260903185024 | 95 | 253 | 3.0 | 16.0 | 0.00 | 0.00 | 0.00 | 47 | 1012.6 |
| 20260903184542 | 95 | 0 | 5.0 | 15.0 | 0.00 | 0.00 | 0.00 | 47 | 1012.7 |
| 20260903184027 | 95 | 159 | 4.0 | 15.0 | 0.00 | 0.00 | 0.00 | 47 | 1012.7 |
| 20260903183528 | 95 | 196 | 3.0 | 15.0 | 0.00 | 0.00 | 0.00 | 48 | 1012.8 |
| 20260903183052 | 94 | 133 | 6.0 | 15.0 | 0.00 | 0.00 | 0.00 | 49 | 1012.8 |
| 20260903182526 | 93 | 164 | 4.0 | 17.0 | 0.00 | 0.00 | 0.00 | 49 | 1012.9 |
| 20260903182024 | 94 | 176 | 5.0 | 20.0 | 0.00 | 0.00 | 0.00 | 48 | 1013.1 |
| 20260903181545 | 95 | 171 | 5.0 | 20.0 | 0.00 | 0.00 | 0.00 | 45 | 1013.0 |
| 20260903181023 | 95 | 0 | 1.0 | 9.0 | 0.00 | 0.00 | 0.00 | 48 | 1013.1 |
| 20260903180524 | 95 | 0 | 3.0 | 14.0 | 0.00 | 0.00 | 0.00 | 46 | 1013.1 |
| 20260903180044 | 94 | 0 | 4.0 | 14.0 | 0.00 | 0.00 | 0.00 | 46 | 1013.3 |
| 20260903175528 | 95 | 153 | 3.0 | 11.0 | 0.00 | 0.00 | 0.00 | 46 | 1013.4 |
| 20260903175024 | 94 | 225 | 4.0 | 12.0 | 0.00 | 0.00 | 0.00 | 48 | 1013.4 |
| 20260903174600 | 94 | 165 | 3.0 | 12.0 | 0.00 | 0.00 | 0.00 | 47 | 1013.5 |
| 20260903174024 | 94 | 271 | 2.0 | 12.0 | 0.00 | 0.00 | 0.00 | 47 | 1013.5 |
| 20260903173525 | 94 | 0 | 3.0 | 12.0 | 0.00 | 0.00 | 0.00 | 47 | 1013.6 |
| 20260903173043 | 94 | 327 | 2.0 | 14.0 | 0.00 | 0.00 | 0.00 | 48 | 1013.6 |
| 20260903172524 | 93 | 0 | 4.0 | 14.0 | 0.00 | 0.00 | 0.00 | 50 | 1013.6 |
| 20260903172024 | 93 | 152 | 5.0 | 14.0 | 0.00 | 0.00 | 0.00 | 48 | 1013.7 |
| 20260903171548 | 93 | 141 | 2.0 | 12.0 | 0.00 | 0.00 | 0.00 | 49 | 1013.8 |
| 20260903171021 | 92 | 180 | 3.0 | 13.0 | 0.00 | 0.00 | 0.00 | 49 | 1013.9 |
| 20260903170524 | 92 | 181 | 5.0 | 15.0 | 0.00 | 0.00 | 0.00 | 49 | 1014.0 |
| 20260903170104 | 92 | 263 | 3.0 | 15.0 | 0.00 | 0.00 | 0.00 | 50 | 1014.0 |
| 20260903165522 | 92 | 192 | 3.0 | 13.0 | 0.00 | 0.00 | 0.00 | 51 | 1014.1 |
| 20260903165024 | 91 | 171 | 5.0 | 12.0 | 0.00 | 0.00 | 0.00 | 51 | 1014.1 |
| 20260903164550 | 91 | 317 | 4.0 | 15.0 | 0.00 | 0.00 | 0.00 | 52 | 1014.1 |
| 20260903164024 | 91 | 166 | 4.0 | 15.0 | 0.00 | 0.00 | 0.00 | 53 | 1014.1 |
| 20260903163523 | 91 | 165 | 4.0 | 14.0 | 0.00 | 0.00 | 0.00 | 52 | 1014.1 |
| 20260903163045 | 91 | 218 | 3.0 | 14.0 | 0.00 | 0.00 | 0.00 | 53 | 1014.1 |
| 20260903162522 | 91 | 152 | 1.0 | 14.0 | 0.00 | 0.00 | 0.00 | 53 | 1014.1 |
| 20260903162025 | 90 | 182 | 4.0 | 14.0 | 0.00 | 0.00 | 0.00 | 54 | 1014.1 |
| 20260903161544 | 90 | 156 | 2.0 | 12.0 | 0.00 | 0.00 | 0.00 | 54 | 1014.2 |
| 20260903161026 | 90 | 199 | 3.0 | 16.0 | 0.00 | 0.00 | 0.00 | 54 | 1014.1 |
| 20260903160525 | 89 | 215 | 6.0 | 16.0 | 0.00 | 0.00 | 0.00 | 53 | 1014.1 |
| 20260903160041 | 90 | 113 | 5.0 | 13.0 | 0.00 | 0.00 | 0.00 | 54 | 1014.1 |
| 20260903155525 | 89 | 163 | 2.0 | 13.0 | 0.00 | 0.00 | 0.00 | 55 | 1014.1 |
| 20260903155026 | 89 | 201 | 4.0 | 13.0 | 0.00 | 0.00 | 0.00 | 55 | 1014.3 |
| 20260903154546 | 89 | 117 | 4.0 | 13.0 | 0.00 | 0.00 | 0.00 | 55 | 1014.2 |
| 20260903154024 | 89 | 0 | 2.0 | 12.0 | 0.00 | 0.00 | 0.00 | 58 | 1014.2 |
| 20260903153525 | 88 | 271 | 2.0 | 13.0 | 0.00 | 0.00 | 0.00 | 57 | 1014.1 |
| 20260903153054 | 88 | 0 | 3.0 | 13.0 | 0.00 | 0.00 | 0.00 | 58 | 1014.2 |
| 20260903152526 | 87 | 41 | 4.0 | 13.0 | 0.00 | 0.00 | 0.00 | 58 | 1014.3 |
| 20260903152024 | 87 | 256 | 3.0 | 11.0 | 0.00 | 0.00 | 0.00 | 59 | 1014.3 |
| 20260903151553 | 87 | 0 | 2.0 | 18.0 | 0.00 | 0.00 | 0.00 | 59 | 1014.3 |
| 20260903151023 | 86 | 0 | 3.0 | 18.0 | 0.00 | 0.00 | 0.00 | 61 | 1014.3 |
| 20260903150522 | 86 | 166 | 5.0 | 18.0 | 0.00 | 0.00 | 0.00 | 60 | 1014.2 |
| 20260903150046 | 86 | 12 | 2.0 | 17.0 | 0.00 | 0.00 | 0.00 | 62 | 1014.2 |
| 20260903145528 | 86 | 154 | 3.0 | 17.0 | 0.00 | 0.00 | 0.00 | 62 | 1014.2 |
| 20260903145028 | 86 | 194 | 3.0 | 14.0 | 0.00 | 0.00 | 0.00 | 62 | 1014.1 |
| 20260903144547 | 85 | 173 | 3.0 | 14.0 | 0.00 | 0.00 | 0.00 | 63 | 1014.1 |
| 20260903144025 | 85 | 196 | 2.0 | 14.0 | 0.00 | 0.00 | 0.00 | 64 | 1014.2 |
| 20260903143525 | 84 | 206 | 1.0 | 13.0 | 0.00 | 0.00 | 0.00 | 66 | 1014.3 |
| 20260903143044 | 84 | 0 | 3.0 | 13.0 | 0.00 | 0.00 | 0.00 | 66 | 1014.3 |
| 20260903142525 | 83 | 205 | 3.0 | 10.0 | 0.00 | 0.00 | 0.00 | 66 | 1014.4 |
| 20260903142026 | 83 | 0 | 1.0 | 16.0 | 0.00 | 0.00 | 0.00 | 67 | 1014.3 |
| 20260903141549 | 82 | 159 | 2.0 | 16.0 | 0.00 | 0.00 | 0.00 | 68 | 1014.3 |
| 20260903141025 | 82 | 228 | 3.0 | 11.0 | 0.00 | 0.00 | 0.00 | 68 | 1014.4 |
| 20260903140524 | 82 | 178 | 2.0 | 11.0 | 0.00 | 0.00 | 0.00 | 68 | 1014.4 |
| 20260903140047 | 82 | 175 | 1.0 | 7.0 | 0.00 | 0.00 | 0.00 | 69 | 1014.4 |
| 20260903135525 | 81 | 164 | 1.0 | 13.0 | 0.00 | 0.00 | 0.00 | 69 | 1014.3 |
| 20260903135025 | 81 | 244 | 2.0 | 13.0 | 0.00 | 0.00 | 0.00 | 69 | 1014.5 |
| 20260903134544 | 80 | 194 | 3.0 | 11.0 | 0.00 | 0.00 | 0.00 | 70 | 1014.5 |
| 20260903134027 | 80 | 161 | 1.0 | 10.0 | 0.00 | 0.00 | 0.00 | 70 | 1014.5 |
| 20260903133525 | 80 | 0 | 1.0 | 6.0 | 0.00 | 0.00 | 0.00 | 71 | 1014.6 |
| 20260903133054 | 79 | 169 | 1.0 | 8.0 | 0.00 | 0.00 | 0.00 | 71 | 1014.5 |
| 20260903132523 | 79 | 0 | 1.0 | 8.0 | 0.00 | 0.00 | 0.00 | 71 | 1014.5 |
| 20260903132024 | 79 | 200 | 1.0 | 9.0 | 0.00 | 0.00 | 0.00 | 72 | 1014.5 |
| 20260903131555 | 78 | 161 | 3.0 | 9.0 | 0.00 | 0.00 | 0.00 | 72 | 1014.5 |
| 20260903131026 | 78 | 180 | 2.0 | 8.0 | 0.00 | 0.00 | 0.00 | 72 | 1014.5 |
| 20260903130525 | 78 | 176 | 1.0 | 8.0 | 0.00 | 0.00 | 0.00 | 73 | 1014.5 |
| 20260903130044 | 77 | 0 | 3.0 | 10.0 | 0.00 | 0.00 | 0.00 | 73 | 1014.5 |
| 20260903125523 | 77 | 206 | 2.0 | 10.0 | 0.00 | 0.00 | 0.00 | 74 | 1014.5 |
| 20260903125023 | 77 | 162 | 2.0 | 6.0 | 0.00 | 0.00 | 0.00 | 74 | 1014.4 |
| 20260903124546 | 77 | 0 | 1.0 | 5.0 | 0.00 | 0.00 | 0.00 | 74 | 1014.4 |
| 20260903124022 | 77 | 0 | 1.0 | 5.0 | 0.00 | 0.00 | 0.00 | 74 | 1014.3 |
| 20260903123526 | 77 | 180 | 1.0 | 10.0 | 0.00 | 0.00 | 0.00 | 73 | 1014.3 |
| 20260903123048 | 77 | 177 | 2.0 | 10.0 | 0.00 | 0.00 | 0.00 | 74 | 1014.2 |
| 20260903122529 | 77 | 180 | 0.0 | 6.0 | 0.00 | 0.00 | 0.00 | 74 | 1014.2 |
| 20260903122026 | 76 | 190 | 0.0 | 7.0 | 0.00 | 0.00 | 0.00 | 74 | 1014.2 |
| 20260903121546 | 77 | 186 | 1.0 | 7.0 | 0.00 | 0.00 | 0.00 | 73 | 1014.1 |
| 20260903121023 | 76 | 155 | 1.0 | 6.0 | 0.00 | 0.00 | 0.00 | 74 | 1014.1 |
| 20260903120525 | 76 | 214 | 0.0 | 9.0 | 0.00 | 0.00 | 0.00 | 73 | 1014.0 |
| 20260903120048 | 76 | 165 | 1.0 | 9.0 | 0.00 | 0.00 | 0.00 | 73 | 1013.9 |
| 20260903115531 | 77 | 169 | 0.0 | 5.0 | 0.00 | 0.00 | 0.00 | 73 | 1013.9 |
| 20260903115028 | 77 | 0 | 0.0 | 6.0 | 0.00 | 0.00 | 0.00 | 73 | 1013.8 |
| 20260903114542 | 77 | 0 | 1.0 | 6.0 | 0.00 | 0.00 | 0.00 | 73 | 1013.7 |
| 20260903114023 | 77 | 167 | 1.0 | 6.0 | 0.00 | 0.00 | 0.00 | 72 | 1013.6 |
| 20260903113526 | 77 | 168 | 1.0 | 10.0 | 0.00 | 0.00 | 0.00 | 72 | 1013.7 |
| 20260903113042 | 77 | 191 | 1.0 | 10.0 | 0.00 | 0.00 | 0.00 | 72 | 1013.6 |
| 20260903112525 | 77 | 180 | 3.0 | 10.0 | 0.00 | 0.00 | 0.00 | 72 | 1013.6 |
| 20260903112025 | 77 | 188 | 1.0 | 8.0 | 0.00 | 0.00 | 0.00 | 72 | 1013.6 |
| 20260903111615 | 77 | 180 | 0.0 | 7.0 | 0.00 | 0.00 | 0.00 | 72 | 1013.7 |
| 20260903111028 | 77 | 173 | 1.0 | 7.0 | 0.00 | 0.00 | 0.00 | 72 | 1013.7 |
| 20260903110524 | 77 | 0 | 0.0 | 8.0 | 0.00 | 0.00 | 0.00 | 72 | 1013.5 |
| 20260903110043 | 77 | 180 | 2.0 | 9.0 | 0.00 | 0.00 | 0.00 | 72 | 1013.6 |
| 20260903105526 | 77 | 0 | 1.0 | 9.0 | 0.00 | 0.00 | 0.00 | 72 | 1013.6 |
| 20260903105025 | 77 | 212 | 1.0 | 7.0 | 0.00 | 0.00 | 0.00 | 72 | 1013.6 |
| 20260903104600 | 77 | 183 | 0.0 | 6.0 | 0.00 | 0.00 | 0.00 | 72 | 1013.5 |
| 20260903104026 | 77 | 0 | 1.0 | 6.0 | 0.00 | 0.00 | 0.00 | 71 | 1013.5 |
| 20260903103525 | 77 | 155 | 2.0 | 7.0 | 0.00 | 0.00 | 0.00 | 71 | 1013.5 |
| 20260903103042 | 77 | 178 | 2.0 | 7.0 | 0.00 | 0.00 | 0.00 | 71 | 1013.5 |
| 20260903102526 | 77 | 0 | 1.0 | 7.0 | 0.00 | 0.00 | 0.00 | 70 | 1013.5 |
| 20260903102025 | 77 | 165 | 1.0 | 7.0 | 0.00 | 0.00 | 0.00 | 70 | 1013.4 |
| 20260903101545 | 77 | 0 | 2.0 | 6.0 | 0.00 | 0.00 | 0.00 | 70 | 1013.4 |
| 20260903101025 | 77 | 177 | 1.0 | 6.0 | 0.00 | 0.00 | 0.00 | 70 | 1013.4 |
| 20260903100527 | 77 | 0 | 0.0 | 5.0 | 0.00 | 0.00 | 0.00 | 70 | 1013.5 |
| 20260903100048 | 77 | 0 | 0.0 | 5.0 | 0.00 | 0.00 | 0.00 | 70 | 1013.4 |
| 20260903095524 | 77 | 0 | 0.0 | 5.0 | 0.00 | 0.00 | 0.00 | 70 | 1013.3 |
| 20260903095026 | 77 | 0 | 0.0 | 9.0 | 0.00 | 0.00 | 0.00 | 70 | 1013.4 |
| 20260903094555 | 77 | 180 | 0.0 | 9.0 | 0.00 | 0.00 | 0.00 | 70 | 1013.4 |
| 20260903094028 | 77 | 0 | 2.0 | 9.0 | 0.00 | 0.00 | 0.00 | 70 | 1013.5 |
| 20260903093532 | 77 | 0 | 0.0 | 4.0 | 0.00 | 0.00 | 0.00 | 70 | 1013.5 |
| 20260903093046 | 77 | 0 | 0.0 | 5.0 | 0.00 | 0.00 | 0.00 | 70 | 1013.5 |
| 20260903092525 | 77 | 0 | 0.0 | 5.0 | 0.00 | 0.00 | 0.00 | 70 | 1013.4 |
| 20260903092026 | 77 | 0 | 0.0 | 5.0 | 0.00 | 0.00 | 0.00 | 70 | 1013.4 |
| 20260903091542 | 77 | 0 | 0.0 | 0.0 | 0.00 | 0.00 | 0.00 | 70 | 1013.4 |
| 20260903091024 | 77 | 0 | 0.0 | 0.0 | 0.00 | 0.00 | 0.00 | 69 | 1013.3 |
| 20260903090525 | 78 | 0 | 0.0 | 0.0 | 0.00 | 0.00 | 0.00 | 68 | 1013.3 |
| 20260903090051 | 78 | 0 | 0.0 | 0.0 | 0.00 | 0.00 | 0.00 | 68 | 1013.3 |
| 20260903085523 | 78 | 0 | 0.0 | 0.0 | 0.00 | 0.00 | 0.00 | 68 | 1013.4 |
| 20260903085024 | 78 | 0 | 0.0 | 0.0 | 0.00 | 0.00 | 0.00 | 68 | 1013.3 |
| 20260903084545 | 79 | 0 | 0.0 | 0.0 | 0.00 | 0.00 | 0.00 | 67 | 1013.4 |
| 20260903084025 | 79 | 0 | 0.0 | 0.0 | 0.00 | 0.00 | 0.00 | 66 | 1013.3 |